Weather History for KPCZ - November, 2012

Change the Weather History Date:

Tuesday, November 6, 2012

  Actual Average Record
Temperature  
Mean Temperature 30 °F -  
Max Temperature 37 °F 45 °F 68 °F (1975)
Min Temperature 23 °F 28 °F -6 °F (1951)
Degree Days  
Heating Degree Days 35    
Moisture  
Dew Point 32 °F    
Average Humidity 91    
Maximum Humidity 100    
Minimum Humidity 86    
Precipitation  
Precipitation 0.00 in - - ()
Sea Level Pressure  
Sea Level Pressure 29.92 in    
Wind  
Wind Speed 3 mph (SSE)    
Max Wind Speed 9 mph    
Max Gust Speed -    
Visibility 4 miles    
Events Rain , Snow    
Averages and records for this station are not official NWS values.
T = Trace of Precipitation, MM = Missing Value Source: NWS Daily Summary

Daily Weather History Graph

Daily Weather History Graph

Search for Another Location

Airport or City:

Trip Planner

Search our weather history database for the weather conditions in past years. The results will help you decide how hot, cold, wet, or windy it might be!

Date:

Astronomy

Nov. 06, 2012 Rise Set
Actual Time 6:40 AM CST 4:38 PM CST
Civil Twilight 6:09 AM CST 5:08 PM CST
Nautical Twilight 5:35 AM CST 5:43 PM CST
Astronomical Twilight 5:01 AM CST 6:17 PM CST
Moon 11:20 PM CST (11/6) 12:30 PM CST (11/6)
Length of Visible Light 10h 59m
Length of Day
9h 57m
Waning Gibbous, 53% of the Moon is Illuminated
Nov 6
Waning Gibbous
Nov 6
Last Quarter
Nov 13
New
Nov 20
First Quarter
Nov 28
Full

Hourly Weather History & Observations

Time (CST) Temp. Windchill Dew Point Humidity Pressure Visibility Wind Dir Wind Speed Gust Speed Precip Events Conditions
12:15 AM 24.8 °F - 21.2 °F 86% 30.09 in 10.0 mi Calm Calm - N/A   Clear
12:35 AM 24.8 °F - 21.2 °F 86% 30.09 in 7.0 mi Calm Calm - N/A   Clear
12:55 AM 24.8 °F - 21.2 °F 86% 30.08 in 10.0 mi Calm Calm - N/A   Clear
1:15 AM 23.0 °F - 21.2 °F 93% 30.08 in 10.0 mi Calm Calm - N/A   Scattered Clouds
1:35 AM 24.8 °F - 21.2 °F 86% 30.06 in 10.0 mi Calm Calm - N/A   Overcast
1:55 AM 26.6 °F - 23.0 °F 86% 30.05 in 10.0 mi Calm Calm - N/A   Overcast
2:35 AM 28.4 °F - 26.6 °F 93% 30.03 in 10.0 mi Calm Calm - N/A   Overcast
3:15 AM 30.2 °F - 28.4 °F 93% 30.02 in 7.0 mi Calm Calm - N/A   Overcast
3:35 AM 32.0 °F 28.7 °F 28.4 °F 87% 30.01 in 5.0 mi SE 3.5 mph - N/A   Overcast
3:55 AM 32.0 °F - 30.2 °F 93% 30.01 in 5.0 mi Calm Calm - N/A   Overcast
4:15 AM 32.0 °F - 30.2 °F 93% 30.01 in 5.0 mi Calm Calm - N/A   Overcast
4:35 AM 32.0 °F - 30.2 °F 93% 30.00 in 5.0 mi Calm Calm - N/A   Overcast
4:55 AM 32.0 °F - 30.2 °F 93% 29.99 in 5.0 mi Calm Calm - N/A   Overcast
5:15 AM 32.0 °F 28.7 °F 30.2 °F 93% 29.98 in 5.0 mi SSE 3.5 mph - N/A   Overcast
5:35 AM 32.0 °F 27.5 °F 32.0 °F 100% 29.97 in 7.0 mi SSE 4.6 mph - N/A   Overcast
5:55 AM 32.0 °F 27.5 °F 32.0 °F 100% 29.96 in 7.0 mi SSE 4.6 mph - N/A   Overcast
6:15 AM 33.8 °F 29.6 °F 32.0 °F 93% 29.96 in 7.0 mi SSE 4.6 mph - N/A   Overcast
6:35 AM 33.8 °F 30.8 °F 32.0 °F 93% 29.96 in 7.0 mi South 3.5 mph - N/A   Overcast
6:55 AM 33.8 °F 27.7 °F 32.0 °F 93% 29.96 in 7.0 mi South 6.9 mph - N/A   Overcast
7:15 AM 33.8 °F 27.7 °F 32.0 °F 93% 29.96 in 5.0 mi South 6.9 mph - N/A   Overcast
7:35 AM 33.8 °F 28.6 °F 32.0 °F 93% 29.96 in 5.0 mi South 5.8 mph - N/A   Overcast
7:55 AM 35.6 °F 29.9 °F 32.0 °F 87% 29.96 in 5.0 mi SSE 6.9 mph - N/A   Haze
8:15 AM 35.6 °F 29.9 °F 32.0 °F 87% 29.95 in 5.0 mi South 6.9 mph - N/A   Haze
8:35 AM 35.6 °F 30.7 °F 32.0 °F 87% 29.95 in 2.5 mi South 5.8 mph - N/A Snow Light Snow
8:55 AM 33.8 °F 27.7 °F 32.0 °F 93% 29.94 in 2.0 mi SSE 6.9 mph - N/A Snow Light Snow
9:15 AM 33.8 °F 28.6 °F 32.0 °F 93% 29.94 in 2.0 mi SSE 5.8 mph - N/A Snow Light Snow
9:35 AM 35.6 °F 29.9 °F 32.0 °F 87% 29.93 in 2.5 mi SSE 6.9 mph - N/A Snow Light Snow
9:55 AM 35.6 °F 28.6 °F 32.0 °F 87% 29.93 in 2.5 mi SSE 9.2 mph - N/A Rain Rain
10:15 AM 35.6 °F 28.6 °F 32.0 °F 87% 29.93 in 3.0 mi SSE 9.2 mph - N/A Rain Light Rain
10:35 AM 35.6 °F 29.2 °F 32.0 °F 87% 29.93 in 3.0 mi SSE 8.1 mph - N/A Rain Light Rain
10:55 AM 35.6 °F 29.9 °F 32.0 °F 87% 29.92 in 2.0 mi SSE 6.9 mph - N/A Rain Light Rain
11:15 AM 35.6 °F 29.9 °F 33.8 °F 93% 29.91 in 2.0 mi SSE 6.9 mph - N/A Rain Light Rain
11:35 AM 35.6 °F 29.9 °F 33.8 °F 93% 29.89 in 2.0 mi SSE 6.9 mph - N/A Rain Light Rain
11:55 AM 35.6 °F 28.6 °F 33.8 °F 93% 29.88 in 2.5 mi SSE 9.2 mph - N/A Rain Light Rain
12:15 PM 35.6 °F 28.6 °F 33.8 °F 93% 29.87 in 2.5 mi SE 9.2 mph - N/A   Light Drizzle
12:35 PM 35.6 °F 29.2 °F 33.8 °F 93% 29.86 in 3.0 mi SE 8.1 mph - N/A   Light Drizzle
1:15 PM 37.4 °F 31.4 °F 33.8 °F 87% 29.85 in 3.0 mi SSE 8.1 mph - N/A Rain Light Rain
1:35 PM 35.6 °F 29.2 °F 33.8 °F 93% 29.85 in 2.5 mi SE 8.1 mph - N/A Rain Light Rain
1:55 PM 35.6 °F 29.2 °F 33.8 °F 93% 29.84 in 2.5 mi SE 8.1 mph - N/A Rain Light Rain
2:15 PM 37.4 °F 32.1 °F 33.8 °F 87% 29.84 in 2.5 mi SSE 6.9 mph - N/A   Light Drizzle
2:35 PM 37.4 °F 32.1 °F 33.8 °F 87% 29.84 in 2.0 mi SSE 6.9 mph - N/A   Overcast
2:55 PM 37.4 °F 32.1 °F 33.8 °F 87% 29.84 in 2.5 mi SSE 6.9 mph - N/A Rain Light Rain
3:15 PM 37.4 °F 32.1 °F 33.8 °F 87% 29.84 in 2.5 mi SSE 6.9 mph - N/A Rain Light Rain
3:35 PM 37.4 °F 30.8 °F 33.8 °F 87% 29.84 in 2.0 mi SSE 9.2 mph - N/A   Overcast
3:55 PM 37.4 °F 31.4 °F 33.8 °F 87% 29.84 in 2.5 mi SSE 8.1 mph - N/A   Drizzle
4:15 PM 37.4 °F 32.8 °F 33.8 °F 87% 29.85 in 2.5 mi SSE 5.8 mph - N/A Rain Rain
4:35 PM 37.4 °F 32.1 °F 33.8 °F 87% 29.85 in 3.0 mi SSE 6.9 mph - N/A   Drizzle
4:55 PM 37.4 °F 33.8 °F 33.8 °F 87% 29.86 in 3.0 mi SSE 4.6 mph - N/A Rain Rain
5:35 PM 35.6 °F 32.8 °F 33.8 °F 93% 29.86 in 3.0 mi SE 3.5 mph - N/A   Drizzle
5:55 PM 35.6 °F 31.7 °F 33.8 °F 93% 29.86 in 4.0 mi SE 4.6 mph - N/A   Drizzle
6:15 PM 35.6 °F 30.7 °F 33.8 °F 93% 29.87 in 4.0 mi SE 5.8 mph - N/A Rain Light Rain
6:35 PM 35.6 °F 31.7 °F 33.8 °F 93% 29.87 in 3.0 mi SE 4.6 mph - N/A Rain Light Rain
6:55 PM 35.6 °F 31.7 °F 33.8 °F 93% 29.87 in 3.0 mi SE 4.6 mph - N/A   Light Drizzle
7:15 PM 35.6 °F 31.7 °F 33.8 °F 93% 29.87 in 3.0 mi SE 4.6 mph - N/A   Light Drizzle
7:35 PM 35.6 °F 31.7 °F 33.8 °F 93% 29.87 in 3.0 mi ESE 4.6 mph - N/A   Overcast
7:55 PM 35.6 °F 32.8 °F 33.8 °F 93% 29.88 in 3.0 mi SE 3.5 mph - N/A   Overcast
8:15 PM 35.6 °F 31.7 °F 33.8 °F 93% 29.88 in 2.0 mi SE 4.6 mph - N/A   Overcast
8:35 PM 35.6 °F 32.8 °F 33.8 °F 93% 29.88 in 1.8 mi SE 3.5 mph - N/A   Light Drizzle
8:55 PM 35.6 °F 32.8 °F 33.8 °F 93% 29.89 in 2.0 mi SE 3.5 mph - N/A   Light Drizzle
9:15 PM 35.6 °F 32.8 °F 33.8 °F 93% 29.89 in 1.8 mi ESE 3.5 mph - N/A   Light Drizzle
9:35 PM 35.6 °F 32.8 °F 33.8 °F 93% 29.89 in 2.5 mi SE 3.5 mph - N/A   Light Drizzle
9:55 PM 35.6 °F 32.8 °F 33.8 °F 93% 29.89 in 2.5 mi ESE 3.5 mph - N/A   Light Drizzle
10:15 PM 35.6 °F - 33.8 °F 93% 29.89 in 2.5 mi Calm Calm - N/A   Overcast
10:35 PM 35.6 °F - 33.8 °F 93% 29.89 in 2.5 mi Calm Calm - N/A   Overcast
10:55 PM 35.6 °F - 33.8 °F 93% 29.89 in 2.5 mi Calm Calm - N/A   Overcast
11:15 PM 35.6 °F - 33.8 °F 93% 29.90 in 2.0 mi Calm Calm - N/A   Overcast
11:35 PM 35.6 °F - 33.8 °F 93% 29.91 in 2.5 mi Calm Calm - N/A   Overcast
11:55 PM 35.6 °F - 33.8 °F 93% 29.91 in 1.8 mi Calm Calm - N/A   Overcast